Weather in Dubovychi

Ukraine / Sumi District     51°38′13″N   33°35′00″E
temp.,
°C
wind,
m/s
gust,
m/s
humid.,
%
clouds,
%
prec.,
mm/h
press.,
hPa
HPBL,
m
21 october, thu
thu2100:00+10ssw91869100 0.1 1014652
03:00+10sw81767100 0.1 1013519
06:00+9ssw8177298 0.1 1011429
09:00+10ssw81870100 0.1 1010513
12:00+14sw8166185 0.0 1009621
15:00+15ssw81459100 0.0 1008744
18:00+12ssw81762100 0.0 1006657
21:00+13ssw91856100 0.0 1004705
22 october, fri
fri2200:00+12ssw81657100 0.0 1003488
03:00+12sw71459100 0.0 1004465
06:00+11sw61366100 0.0 1004500
09:00+12wsw8137132 0.0 1006996
12:00+13wsw914541 0.0 10081478
15:00+14wsw8145015 0.0 10092142
18:00+11wsw713462 0.0 1010482
21:00+7sw49632 0.0 1011196
23 october, sat
sat2300:00+9sw7144379 0.0 1011653
03:00+8wsw715611 0.0 1010594
06:00+7wsw614695 0.0 1011541
09:00+7wsw7127098 0.0 1011966
12:00+10w8115033 0.0 10121537
15:00+8w71264100 0.3 10131390
18:00+6w6136325 0.2 1015770
21:00+5w612765 0.2 1017666
24 october, sun
sun2400:00+5wsw6107190 0.0 1017935
03:00+5wsw6127099 0.0 1017600
06:00+5w5108053 0.0 1017772
09:00+4wnw6976100 0.1 10191091
12:00+5wnw7107998 0.2 1020985
15:00+3nw71080100 0.8 10211053
18:00+3nw7128091 0.3 10231039
21:00+2nnw7137773 0.3 1024904
25 october, mon
mon2500:000nnw6128215 0.0 1027682
03:00−1nnw5118922 0.0 1029413
06:00−2nnw499332 0.0 1031296
09:00−1n48845 0.0 1033329
12:00+4n45565 0.0 1034821
15:00+5n34475 0.0 1034998
18:00+1n22610 0.0 103511
21:000e11662 0.0 103610